Clarksburg, WV

2:52 PM EDT on September 21, 2017 (GMT -0400)
Benedum

Weather History for KCKB - December, 2012

Change the Weather History Date:

Sunday, December 2, 2012

  Actual Average Record
Temperature  
Mean Temperature 52 °F -  
Max Temperature 63 °F 47 °F 68 °F (1970)
Min Temperature 41 °F 28 °F 4 °F (1929)
Degree Days  
Heating Degree Days 13    
Growing Degree Days 2 (Base 50)    
Moisture  
Dew Point 48 °F    
Average Humidity 86    
Maximum Humidity 100    
Minimum Humidity 48    
Precipitation  
Precipitation 0.43 in - - ()
Sea Level Pressure  
Sea Level Pressure 30.17 in    
Wind  
Wind Speed 4 mph (SSW)    
Max Wind Speed 18 mph    
Max Gust Speed 25 mph    
Visibility 6 miles    
Events Rain    
Averages and records for this station are not official NWS values.
T = Trace of Precipitation, MM = Missing Value Source: NWS Daily Summary

Daily Weather History Graph

Daily Weather History Graph

Search for Another Location

Airport or City:

Trip Planner

Search our weather history database for the weather conditions in past years. The results will help you decide how hot, cold, wet, or windy it might be!

Date:

Astronomy

Dec. 02, 2012 Rise Set
Actual Time 7:23 AM EST 4:57 PM EST
Civil Twilight 6:53 AM EST 5:27 PM EST
Nautical Twilight 6:20 AM EST 6:00 PM EST
Astronomical Twilight 5:47 AM EST 6:33 PM EST
Moon 8:43 PM EST (12/2) 10:12 AM EST (12/2)
Length of Visible Light 10h 34m
Length of Day
9h 34m
Waning Gibbous, 86% of the Moon is Illuminated
Dec 2
Waning Gibbous
Dec 6
Last Quarter
Dec 13
New
Dec 20
First Quarter
Dec 28
Full

Hourly Weather History & Observations

Time (EST) Temp. Dew Point Humidity Pressure Visibility Wind Dir Wind Speed Gust Speed Precip Events Conditions
12:53 AM 41.0 °F 37.0 °F 86% 30.24 in 9.0 mi Calm Calm - N/A   Clear
1:53 AM 41.0 °F 37.0 °F 86% 30.25 in 10.0 mi Calm Calm - N/A   Clear
2:53 AM 45.0 °F 37.0 °F 74% 30.24 in 10.0 mi Calm Calm - N/A   Clear
3:53 AM 44.1 °F 36.0 °F 73% 30.23 in 10.0 mi Calm Calm - N/A   Clear
4:53 AM 43.0 °F 36.0 °F 76% 30.23 in 10.0 mi Calm Calm - N/A   Partly Cloudy
5:53 AM 48.9 °F 39.0 °F 69% 30.22 in 10.0 mi South 5.8 mph - N/A   Clear
6:53 AM 50.0 °F 39.0 °F 66% 30.21 in 10.0 mi South 5.8 mph - N/A   Clear
7:53 AM 52.0 °F 39.9 °F 63% 30.21 in 10.0 mi SSW 5.8 mph - N/A   Clear
8:53 AM 55.0 °F 41.0 °F 59% 30.20 in 10.0 mi South 8.1 mph - N/A   Clear
9:53 AM 60.1 °F 42.1 °F 51% 30.19 in 10.0 mi South 11.5 mph - N/A   Clear
10:53 AM 63.0 °F 43.0 °F 48% 30.18 in 10.0 mi SW 18.4 mph 25.3 mph N/A   Clear
11:53 AM 62.1 °F 43.0 °F 50% 30.15 in 10.0 mi SW 13.8 mph - N/A   Partly Cloudy
12:53 PM 59.0 °F 46.9 °F 64% 30.14 in 10.0 mi SW 8.1 mph - 0.00 in Rain Light Rain
1:53 PM 55.0 °F 50.0 °F 83% 30.12 in 9.0 mi SSW 6.9 mph - 0.03 in Rain Light Rain
2:53 PM 54.0 °F 51.1 °F 90% 30.11 in 6.0 mi SSW 3.5 mph - 0.04 in Rain Light Rain
3:00 PM 53.6 °F 51.8 °F 94% 30.12 in 8.0 mi Calm Calm - 0.00 in Rain Light Rain
3:17 PM 53.6 °F 51.8 °F 94% 30.12 in 2.5 mi SSW 4.6 mph - 0.03 in Rain Rain
3:36 PM 53.6 °F 51.8 °F 94% 30.13 in 4.0 mi Calm Calm - 0.06 in Rain Light Rain
3:53 PM 53.1 °F 52.0 °F 96% 30.12 in 4.0 mi Calm Calm - 0.07 in Rain Light Rain
4:09 PM 53.6 °F 51.8 °F 94% 30.13 in 6.0 mi South 4.6 mph - 0.00 in Rain Light Rain
4:53 PM 53.1 °F 51.1 °F 93% 30.13 in 8.0 mi South 4.6 mph - 0.01 in Rain Light Rain
5:53 PM 53.1 °F 52.0 °F 96% 30.14 in 7.0 mi SSW 5.8 mph - 0.00 in   Overcast
6:53 PM 53.1 °F 52.0 °F 96% 30.14 in 9.0 mi South 5.8 mph - 0.00 in   Overcast
7:15 PM 53.6 °F 51.8 °F 94% 30.16 in 5.0 mi SSW 6.9 mph - 0.01 in Rain Light Rain
7:46 PM 53.6 °F 51.8 °F 94% 30.16 in 4.0 mi SW 6.9 mph - 0.02 in Rain Light Rain
7:53 PM 54.0 °F 52.0 °F 93% 30.15 in 2.5 mi SSW 8.1 mph - 0.02 in Rain Light Rain
8:07 PM 53.6 °F 53.6 °F 100% 30.17 in 3.0 mi SSW 5.8 mph - 0.02 in Rain Light Rain
8:35 PM 53.6 °F 53.6 °F 100% 30.17 in 2.5 mi SW 8.1 mph - 0.07 in Rain Rain
8:40 PM 53.6 °F 53.6 °F 100% 30.17 in 3.0 mi SW 6.9 mph - 0.07 in Rain Light Rain
8:50 PM 53.6 °F 53.6 °F 100% 30.17 in 3.0 mi SSW 6.9 mph - 0.07 in Rain Light Rain
8:53 PM 54.0 °F 53.1 °F 97% 30.16 in 3.0 mi SSW 8.1 mph - 0.07 in Rain Light Rain
9:01 PM 53.6 °F 53.6 °F 100% 30.17 in 2.5 mi SSW 6.9 mph - 0.01 in Rain Light Rain
9:20 PM 53.6 °F 53.6 °F 100% 30.18 in 3.0 mi SSW 6.9 mph - 0.01 in Rain Light Rain
9:53 PM 54.0 °F 53.1 °F 97% 30.16 in 4.0 mi SSW 6.9 mph - 0.02 in Rain Light Rain
10:53 PM 55.0 °F 54.0 °F 96% 30.16 in 2.0 mi SSW 5.8 mph - 0.09 in Rain Heavy Rain
11:03 PM 55.4 °F 53.6 °F 94% 30.18 in 3.0 mi SSW 4.6 mph - 0.02 in Rain Rain
11:12 PM 55.4 °F 53.6 °F 94% 30.18 in 2.5 mi SSW 4.6 mph - 0.05 in Rain Rain
11:53 PM 55.0 °F 54.0 °F 96% 30.17 in 4.0 mi SSW 4.6 mph - 0.08 in Rain Light Rain